Showing default

FORMOSAT-8A, 66666

Orbit data source: Space-Track

FORMOSAT-8A, 66666 is a payload satellite owned by TASA (TW) in SSO that was launched on Fri, 28 Nov 2025 UTC via an FALCON 9 launch vehicle from the Air Force Western Test Range (AFWTR). Payload-class satellites include a variety of spacecraft equipped with specific instruments for various scientific and technological missions. These include communications satellites like Starlink; space stations such as the ISS; scientific satellites like the Hubble; Earth observation satellites from companies like Planet Labs, Umbra, and HawkEye 360; GPS; miniature CubeSats for education and research; and military/defense satellites.

Loading next visibility...
Identifier
66666, 2025-276A
Orbit
SSO
Country
Flag of TWTW / TWN
Related business
Manufacturer
TASA
Mission
Operational Civil Imaging/Sci
Bus & Motor
FS8, AOCS
Mass
380 kg wet, 380 kg dry
Launch date (UTC)
2025-11-28 (4 months ago)
Launch vehicle
FALCON 9
Launch site
Air Force Western Test Range (AFWTR)
Object type
Payload
Rocket body
Debris
Shape & HBR
Box + 2 Pan, 2.2 m
Radar Cross Section
3.681 m²

Expand to show TLE details & history
Last TLE update: 10 hours ago

TLE from 10 hours ago
0 FORMOSAT-8A
1 66666U 25276A   26095.47979199  .00003094  00000-0  24801-3 0  9993
2 66666  97.6529 170.7867 0003971 156.0061 204.1349 15.00846759 19159
Epoch: 2026-04-05T11:30Z
TLE epoch observation values (Epoch: 2026-04-05T11:30:54.027Z)
Latitude
-0.00002°
Longitude
164.27697°
Altitude
569.858 km
Speed
7.575 km/s
True Right ascension
11h 23m 08s
True Declination
0° 00' 00"
Sunlit
Object was in full shadow at epoch
Visualization orbit readout
Latitude
Unknown
Longitude
Unknown
Altitude
Unknown
Speed
Unknown
Apparent Right ascension
Unknown
Apparent Declination
Unknown
Sunlit
N/A
Visualization observer readout
Local Sidereal Time
03:56:54
Azimuth
Unknown
Elevation
Unknown
Doppler factor
Unknown
Orbital elements
Apogee altitude
564.042 km
Perigee altitude
558.53 km
Semi-major axis
6,939.423 km
Eccentricity
0.0004
Inclination
97.6529°
RAAN
170.7867°
Arg. of periapsis
156.0061°
True anomaly
204.1163°
Mean anomaly
204.1349°
Eccentric anomaly
204.1256°
Mean motion
3.75455 °/min
Orbital period
95.88 mins
BSTAR
0.00024801
Loading maneuver chart data...
Computing Atmospheric mass density...
Loading historical data...
Loading historical data...
Loading historical data...
Loading historical data...
Loading historical data...
Loading historical data...
Loading historical data...

Documentation

Showing up to 5 results
|